Location: Karwodrza
(49.9217°N, 21.0454°E)
Time: 00:38:47
(UTC+02:00)

ISS - Visible Passes

Search period start: 21 September 2018 00:00
Search period end: 01 October 2018 00:00
Orbit: 403 x 408 km, 51.6° (Epoch: 20 September)

Date Brightness Start Highest point End Pass type
(mag) Time Alt. Az. Time Alt. Az. Time Alt. Az.
22 Sep -1.8 20:27:38 10° SSW 20:28:50 18° SSW 20:28:50 18° SSW visible
23 Sep -2.3 19:36:25 10° S 19:38:51 19° SE 19:39:35 18° ESE visible
23 Sep -1.1 21:11:42 10° WSW 21:12:18 14° WSW 21:12:18 14° WSW visible
24 Sep -3.5 20:19:55 10° SW 20:22:51 51° S 20:22:51 51° S visible
25 Sep -3.1 19:28:18 10° SW 19:31:20 35° SSE 19:33:15 19° E visible
25 Sep -1.7 21:04:25 10° W 21:05:57 25° W 21:05:57 25° W visible
26 Sep -3.9 20:12:29 10° WSW 20:15:47 86° SSE 20:16:13 65° E visible
27 Sep -3.7 19:20:37 10° WSW 19:23:53 62° SSE 19:26:24 16° ENE visible
27 Sep -2.0 20:57:09 10° W 20:59:05 31° WNW 20:59:05 31° WNW visible
28 Sep -3.7 20:05:09 10° W 20:08:27 70° N 20:09:11 49° NE visible
28 Sep -0.3 21:41:50 10° WNW 21:41:51 10° WNW 21:41:51 10° WNW visible
29 Sep -3.8 19:13:09 10° WSW 19:16:28 86° NNW 19:19:13 14° ENE visible
29 Sep -2.1 20:49:50 10° WNW 20:51:53 34° WNW 20:51:53 34° WNW visible
30 Sep -3.5 19:57:50 10° W 20:01:06 62° N 20:01:53 44° NE visible
30 Sep -0.3 21:34:26 10° WNW 21:34:33 11° WNW 21:34:33 11° WNW visible
